Location: *
(45.1333°S, 169.6333°W)
Time: 19:28:41
(UTC+00:00)

Meteor 2-3 Rocket - Pass Details

Date: 26 May 2022
Orbit: 841 x 886 km, 81.2° (Epoch: 01 July)

Event Time Altitude Azimuth Distance (km) Brightness Sun altitude
Rises 05:39:40 0° 339° (NNW) 3,393 7.3 -18.9°
Reaches altitude 10° 05:42:06 10° 335° (NNW) 2,469 6.6 -19.4°
Maximum altitude 05:47:36 58° 256° (WSW) 1,000 4.3 -20.3°
Drops below altitude 10° 05:53:14 10° 177° (S) 2,519 6.0 -21.3°
Sets 05:55:45 0° 172° (S) 3,469 6.7 -21.7°
